Time,TemperatureF,DewpointF,PressureIn,WindDirection,WindDirectionDegrees,WindSpeedMPH,WindSpeedGustMPH,Humidity,HourlyPrecipIn,Conditions,Clouds,dailyrainin,SolarRadiationWatts/m^2,SoftwareType,DateUTC
2013-12-29 00:01:00,44.4,27.9,30.08,SSW,194,0.0,2.0,52,0.00,,CLR,0.00,0.00,VWS V14.01,2013-12-29 05:01:00,
2013-12-29 00:03:00,44.4,28.4,30.08,SSW,194,2.0,3.0,53,0.00,,CLR,0.00,0.00,VWS V14.01,2013-12-29 05:03:00,
2013-12-29 00:06:00,44.5,28.5,30.07,SSW,194,0.0,2.0,53,0.00,,CLR,0.00,0.00,VWS V14.01,2013-12-29 05:06:00,
2013-12-29 00:11:00,44.5,28.0,30.07,South,172,2.0,5.0,52,0.00,,CLR,0.00,0.00,VWS V14.01,2013-12-29 05:11:00,
2013-12-29 00:17:00,44.6,28.1,30.06,SSE,164,0.0,1.0,52,0.00,,CLR,0.00,0.00,VWS V14.01,2013-12-29 05:17:00,
2013-12-29 00:22:00,44.7,28.2,30.07,SSE,165,1.0,1.0,52,0.00,,CLR,0.00,0.00,VWS V14.01,2013-12-29 05:22:00,
2013-12-29 00:27:00,44.7,28.2,30.07,SSE,165,1.0,3.0,52,0.00,,CLR,0.00,0.00,VWS V14.01,2013-12-29 05:27:00,
2013-12-29 00:32:00,44.8,28.3,30.06,SSE,165,0.0,2.0,52,0.00,,CLR,0.00,0.00,VWS V14.01,2013-12-29 05:32:00,
2013-12-29 00:37:00,44.8,28.3,30.06,SSE,165,1.0,1.0,52,0.00,,CLR,0.00,0.00,VWS V14.01,2013-12-29 05:37:00,
2013-12-29 00:42:00,44.9,28.4,30.06,SSE,165,0.0,1.0,52,0.00,,CLR,0.00,0.00,VWS V14.01,2013-12-29 05:42:00,
2013-12-29 00:47:00,44.9,28.4,30.06,SSE,167,1.0,3.0,52,0.00,,CLR,0.00,0.00,VWS V14.01,2013-12-29 05:47:00,
2013-12-29 00:52:00,44.9,28.4,30.06,South,180,0.0,4.0,52,0.00,,CLR,0.00,0.00,VWS V14.01,2013-12-29 05:52:00,
2013-12-29 00:57:00,45.0,28.5,30.06,South,180,0.0,4.0,52,0.00,,CLR,0.00,0.00,VWS V14.01,2013-12-29 05:57:00,
2013-12-29 01:02:00,45.0,28.5,30.05,South,180,1.0,2.0,52,0.00,,CLR,0.00,0.00,VWS V14.01,2013-12-29 06:02:00,
2013-12-29 01:07:00,45.0,28.5,30.05,South,180,0.0,2.0,52,0.00,,CLR,0.00,0.00,VWS V14.01,2013-12-29 06:07:00,
2013-12-29 01:13:00,45.0,28.5,30.05,South,181,1.0,2.0,52,0.00,,CLR,0.00,0.00,VWS V14.01,2013-12-29 06:13:00,
2013-12-29 01:18:00,45.0,28.5,30.04,South,181,1.0,3.0,52,0.00,,CLR,0.00,0.00,VWS V14.01,2013-12-29 06:18:00,
2013-12-29 01:23:00,45.0,28.5,30.04,South,180,1.0,2.0,52,0.00,,CLR,0.00,0.00,VWS V14.01,2013-12-29 06:23:00,
2013-12-29 01:28:00,45.0,28.5,30.03,South,181,1.0,1.0,52,0.00,,CLR,0.00,0.00,VWS V14.01,2013-12-29 06:28:00,
2013-12-29 01:33:00,45.0,28.0,30.03,South,180,0.0,4.0,51,0.00,,CLR,0.00,0.00,VWS V14.01,2013-12-29 06:33:00,
2013-12-29 01:38:00,45.1,28.5,30.02,South,180,0.0,1.0,52,0.00,,CLR,0.00,0.00,VWS V14.01,2013-12-29 06:38:00,
2013-12-29 01:43:00,45.1,28.1,30.02,South,180,0.0,3.0,51,0.00,,CLR,0.00,0.00,VWS V14.01,2013-12-29 06:43:00,
2013-12-29 01:48:00,45.2,28.6,30.03,South,184,0.0,4.0,52,0.00,,CLR,0.00,0.00,VWS V14.01,2013-12-29 06:48:00,
2013-12-29 01:53:00,45.3,28.2,30.03,South,190,3.0,5.0,51,0.00,,CLR,0.00,0.00,VWS V14.01,2013-12-29 06:53:00,
2013-12-29 01:59:00,45.4,28.4,30.03,South,191,2.0,3.0,51,0.00,,CLR,0.00,0.00,VWS V14.01,2013-12-29 06:59:00,
2013-12-29 02:04:00,45.4,28.4,30.03,South,191,1.0,4.0,51,0.00,,CLR,0.00,0.00,VWS V14.01,2013-12-29 07:04:00,
2013-12-29 02:09:00,45.4,28.4,30.03,SSW,195,3.0,5.0,51,0.00,,CLR,0.00,0.00,VWS V14.01,2013-12-29 07:09:00,
2013-12-29 02:14:00,45.5,28.4,30.04,SSW,195,0.0,4.0,51,0.00,,CLR,0.00,0.00,VWS V14.01,2013-12-29 07:14:00,
2013-12-29 02:19:00,45.5,28.4,30.04,SSW,196,2.0,4.0,51,0.00,,CLR,0.00,0.00,VWS V14.01,2013-12-29 07:19:00,
2013-12-29 02:24:00,45.6,28.5,30.04,SSW,202,2.0,6.0,51,0.00,,CLR,0.00,0.00,VWS V14.01,2013-12-29 07:24:00,
2013-12-29 02:29:00,45.6,28.5,30.04,SSW,206,1.0,6.0,51,0.00,,CLR,0.00,0.00,VWS V14.01,2013-12-29 07:29:00,
2013-12-29 02:34:00,45.6,28.5,30.04,SSW,207,0.0,2.0,51,0.00,,CLR,0.00,0.00,VWS V14.01,2013-12-29 07:34:00,
2013-12-29 02:39:00,45.5,28.4,30.03,SSW,207,0.0,1.0,51,0.00,,CLR,0.00,0.00,VWS V14.01,2013-12-29 07:39:00,
2013-12-29 02:44:00,45.4,28.4,30.04,SSW,205,0.0,3.0,51,0.00,,CLR,0.00,0.00,VWS V14.01,2013-12-29 07:44:00,
2013-12-29 02:49:00,45.4,28.4,30.04,SSW,198,3.0,5.0,51,0.00,,CLR,0.00,0.00,VWS V14.01,2013-12-29 07:49:00,
2013-12-29 02:54:00,45.3,28.7,30.04,SSW,198,2.0,3.0,52,0.00,,CLR,0.00,0.00,VWS V14.01,2013-12-29 07:54:00,
2013-12-29 02:59:00,45.3,28.7,30.03,SSW,196,1.0,1.0,52,0.00,,CLR,0.00,0.00,VWS V14.01,2013-12-29 07:59:00,
2013-12-29 03:04:00,45.3,28.7,30.03,SSW,196,0.0,0.0,52,0.00,,CLR,0.00,0.00,VWS V14.01,2013-12-29 08:04:00,
2013-12-29 03:09:00,45.2,28.2,30.04,SSW,196,0.0,0.0,51,0.00,,CLR,0.00,0.00,VWS V14.01,2013-12-29 08:09:00,
2013-12-29 03:14:00,45.2,28.6,30.04,SSW,196,2.0,2.0,52,0.00,,CLR,0.00,0.00,VWS V14.01,2013-12-29 08:14:00,
2013-12-29 03:20:00,45.2,28.6,30.04,SSW,195,1.0,3.0,52,0.00,,CLR,0.00,0.00,VWS V14.01,2013-12-29 08:20:00,
2013-12-29 03:25:00,45.2,28.6,30.03,South,186,2.0,3.0,52,0.00,,CLR,0.00,0.00,VWS V14.01,2013-12-29 08:25:00,
2013-12-29 03:30:00,45.2,28.6,30.03,South,180,3.0,4.0,52,0.00,,CLR,0.00,0.00,VWS V14.01,2013-12-29 08:30:00,
2013-12-29 03:35:00,45.3,28.7,30.02,South,188,0.0,2.0,52,0.00,,CLR,0.00,0.00,VWS V14.01,2013-12-29 08:35:00,
2013-12-29 03:40:00,45.3,28.7,30.02,South,188,0.0,2.0,52,0.00,,CLR,0.00,0.00,VWS V14.01,2013-12-29 08:40:00,
2013-12-29 03:45:00,45.3,28.7,30.01,SSW,206,4.0,6.0,52,0.00,,CLR,0.00,0.00,VWS V14.01,2013-12-29 08:45:00,
2013-12-29 03:50:00,45.4,28.8,30.01,SW,224,0.0,1.0,52,0.00,,CLR,0.00,0.00,VWS V14.01,2013-12-29 08:50:00,
2013-12-29 03:55:00,45.4,28.8,30.01,South,187,4.0,4.0,52,0.00,,CLR,0.00,0.00,VWS V14.01,2013-12-29 08:55:00,
2013-12-29 04:00:00,45.3,29.2,30.01,SSW,199,5.0,8.0,53,0.00,,CLR,0.00,0.00,VWS V14.01,2013-12-29 09:00:00,
2013-12-29 04:05:00,45.3,28.7,30.01,SSW,207,2.0,5.0,52,0.00,,CLR,0.00,0.00,VWS V14.01,2013-12-29 09:05:00,
2013-12-29 04:10:00,45.4,28.4,30.01,SW,219,0.0,2.0,51,0.00,,CLR,0.00,0.00,VWS V14.01,2013-12-29 09:10:00,
2013-12-29 04:15:00,45.5,28.4,30.01,SW,228,0.0,7.0,51,0.00,,CLR,0.00,0.00,VWS V14.01,2013-12-29 09:15:00,
2013-12-29 04:21:00,45.8,28.7,30.01,SSE,160,5.0,5.0,51,0.00,,CLR,0.00,0.00,VWS V14.01,2013-12-29 09:21:00,
2013-12-29 04:26:00,45.9,29.3,30.01,South,188,3.0,5.0,52,0.00,,CLR,0.00,0.00,VWS V14.01,2013-12-29 09:26:00,
2013-12-29 04:31:00,46.0,29.4,30.01,SSE,155,2.0,3.0,52,0.00,,CLR,0.00,0.00,VWS V14.01,2013-12-29 09:31:00,
2013-12-29 04:36:00,46.0,29.4,30.01,SW,223,3.0,7.0,52,0.00,,CLR,0.00,0.00,VWS V14.01,2013-12-29 09:36:00,
2013-12-29 04:41:00,46.0,30.3,30.01,SSW,200,0.0,6.0,54,0.00,,CLR,0.00,0.00,VWS V14.01,2013-12-29 09:41:00,
2013-12-29 04:46:00,46.1,32.2,30.00,SSW,200,0.0,0.0,58,0.00,,CLR,0.00,0.00,VWS V14.01,2013-12-29 09:46:00,
2013-12-29 04:51:00,45.9,32.8,30.01,South,190,1.0,4.0,60,0.00,,CLR,0.00,0.00,VWS V14.01,2013-12-29 09:51:00,
2013-12-29 04:56:00,45.5,34.0,30.01,South,190,0.0,2.0,64,0.00,,CLR,0.00,0.00,VWS V14.01,2013-12-29 09:56:00,
2013-12-29 05:01:00,45.0,35.1,30.01,SSW,213,3.0,6.0,68,0.00,,CLR,0.00,0.00,VWS V14.01,2013-12-29 10:01:00,
2013-12-29 05:06:00,44.6,35.8,30.00,SW,216,4.0,5.0,71,0.01,,CLR,0.01,0.00,VWS V14.01,2013-12-29 10:06:00,
2013-12-29 05:12:00,44.1,36.4,30.00,SSW,208,0.0,6.0,74,0.01,,CLR,0.01,0.00,VWS V14.01,2013-12-29 10:12:00,
2013-12-29 05:17:00,43.7,36.6,30.00,SSW,207,2.0,3.0,76,0.02,,CLR,0.02,0.00,VWS V14.01,2013-12-29 10:17:00,
2013-12-29 05:22:00,43.4,37.0,30.00,SSW,207,2.0,2.0,78,0.02,,CLR,0.02,0.00,VWS V14.01,2013-12-29 10:22:00,
2013-12-29 05:27:00,43.1,37.0,29.99,SSW,208,0.0,3.0,79,0.03,,CLR,0.03,0.00,VWS V14.01,2013-12-29 10:27:00,
2013-12-29 05:32:00,42.8,37.4,29.99,SSW,208,0.0,0.0,81,0.03,,CLR,0.03,0.00,VWS V14.01,2013-12-29 10:32:00,
2013-12-29 05:37:00,42.6,37.5,29.98,SSW,208,0.0,2.0,82,0.04,,CLR,0.04,0.00,VWS V14.01,2013-12-29 10:37:00,
2013-12-29 05:42:00,42.3,37.5,29.98,SSW,208,0.0,0.0,83,0.05,,CLR,0.05,0.00,VWS V14.01,2013-12-29 10:42:00,
2013-12-29 05:47:00,42.1,37.6,29.97,SSW,208,0.0,0.0,84,0.05,,CLR,0.05,0.00,VWS V14.01,2013-12-29 10:47:00,
2013-12-29 05:52:00,42.0,37.8,29.97,SSW,207,0.0,0.0,85,0.06,,CLR,0.06,0.00,VWS V14.01,2013-12-29 10:52:00,
2013-12-29 05:57:00,41.8,37.9,29.97,SSW,207,0.0,0.0,86,0.07,,CLR,0.07,0.00,VWS V14.01,2013-12-29 10:57:00,
2013-12-29 06:02:00,41.7,38.1,29.97,SSW,208,0.0,0.0,87,0.07,,CLR,0.07,0.00,VWS V14.01,2013-12-29 11:02:00,
2013-12-29 06:08:00,41.6,38.0,29.97,SSW,208,0.0,0.0,87,0.07,,CLR,0.08,0.00,VWS V14.01,2013-12-29 11:08:00,
2013-12-29 06:13:00,41.5,38.2,29.97,SSW,207,0.0,2.0,88,0.07,,CLR,0.08,0.00,VWS V14.01,2013-12-29 11:13:00,
2013-12-29 06:18:00,41.4,38.4,29.96,East,84,1.0,2.0,89,0.07,,CLR,0.08,0.00,VWS V14.01,2013-12-29 11:18:00,
2013-12-29 06:23:00,41.3,38.6,29.95,East,83,0.0,2.0,90,0.07,,CLR,0.09,0.00,VWS V14.01,2013-12-29 11:23:00,
2013-12-29 06:28:00,41.2,38.5,29.95,East,82,0.0,1.0,90,0.06,,CLR,0.09,0.00,VWS V14.01,2013-12-29 11:28:00,
2013-12-29 06:33:00,41.1,38.4,29.94,ENE,75,0.0,1.0,90,0.06,,CLR,0.09,0.00,VWS V14.01,2013-12-29 11:33:00,
2013-12-29 06:38:00,41.1,38.7,29.94,ENE,75,0.0,2.0,91,0.05,,CLR,0.09,0.00,VWS V14.01,2013-12-29 11:38:00,
2013-12-29 06:43:00,41.1,38.7,29.94,ENE,75,0.0,0.0,91,0.06,,CLR,0.10,0.00,VWS V14.01,2013-12-29 11:43:00,
2013-12-29 06:48:00,41.0,38.9,29.94,ENE,75,0.0,0.0,92,0.06,,CLR,0.11,0.00,VWS V14.01,2013-12-29 11:48:00,
2013-12-29 06:53:00,41.0,38.9,29.93,ENE,75,0.0,0.0,92,0.07,,CLR,0.13,0.00,VWS V14.01,2013-12-29 11:53:00,
2013-12-29 06:58:00,41.1,39.0,29.93,ENE,75,1.0,1.0,92,0.09,,CLR,0.15,0.00,VWS V14.01,2013-12-29 11:58:00,
2013-12-29 07:03:00,41.1,39.0,29.92,ENE,70,0.0,2.0,92,0.09,,CLR,0.16,0.00,VWS V14.01,2013-12-29 12:03:00,
2013-12-29 07:08:00,41.1,39.2,29.92,ENE,69,1.0,3.0,93,0.11,,CLR,0.18,0.00,VWS V14.01,2013-12-29 12:08:00,
2013-12-29 07:14:00,41.1,39.2,29.91,ENE,78,0.0,2.0,93,0.10,,CLR,0.18,0.00,VWS V14.01,2013-12-29 12:14:00,
2013-12-29 07:19:00,41.1,39.2,29.90,ENE,77,0.0,2.0,93,0.11,,CLR,0.19,0.00,VWS V14.01,2013-12-29 12:19:00,
2013-12-29 07:24:00,41.2,39.3,29.90,ENE,68,0.0,0.0,93,0.12,,CLR,0.20,0.00,VWS V14.01,2013-12-29 12:24:00,
2013-12-29 07:29:00,41.2,39.6,29.89,ENE,68,0.0,1.0,94,0.12,,CLR,0.21,0.00,VWS V14.01,2013-12-29 12:29:00,
2013-12-29 07:34:00,41.2,39.6,29.89,ENE,68,0.0,0.0,94,0.13,,CLR,0.22,0.00,VWS V14.01,2013-12-29 12:34:00,
2013-12-29 07:39:00,41.2,39.6,29.89,ENE,68,0.0,1.0,94,0.13,,CLR,0.22,0.00,VWS V14.01,2013-12-29 12:39:00,
2013-12-29 07:44:00,41.2,39.6,29.89,ENE,68,0.0,0.0,94,0.13,,CLR,0.23,0.00,VWS V14.01,2013-12-29 12:44:00,
2013-12-29 07:49:00,41.2,39.6,29.88,ENE,68,0.0,0.0,94,0.14,,CLR,0.24,0.00,VWS V14.01,2013-12-29 12:49:00,
2013-12-29 07:54:00,41.2,39.6,29.88,ENE,68,0.0,0.0,94,0.13,,CLR,0.25,0.00,VWS V14.01,2013-12-29 12:54:00,
2013-12-29 07:59:00,41.2,39.6,29.88,ENE,68,0.0,0.0,94,0.11,,CLR,0.26,0.00,VWS V14.01,2013-12-29 12:59:00,
2013-12-29 08:04:00,41.3,40.0,29.87,ENE,68,0.0,0.0,95,0.11,,CLR,0.27,0.00,VWS V14.01,2013-12-29 13:04:00,
2013-12-29 08:09:00,41.5,40.2,29.87,ENE,68,0.0,0.0,95,0.10,,CLR,0.28,0.00,VWS V14.01,2013-12-29 13:09:00,
2013-12-29 08:14:00,42.0,40.7,29.86,ENE,69,0.0,0.0,95,0.11,,CLR,0.29,0.00,VWS V14.01,2013-12-29 13:14:00,
2013-12-29 08:20:00,42.7,41.6,29.85,SSE,164,4.0,4.0,96,0.11,,CLR,0.30,0.00,VWS V14.01,2013-12-29 13:20:00,
2013-12-29 08:25:00,43.5,42.4,29.86,SE,134,0.0,3.0,96,0.12,,CLR,0.32,0.00,VWS V14.01,2013-12-29 13:25:00,
2013-12-29 08:30:00,44.0,42.9,29.86,SE,130,2.0,2.0,96,0.12,,CLR,0.33,5.00,VWS V14.01,2013-12-29 13:30:00,
2013-12-29 08:35:00,44.3,43.2,29.85,SE,140,0.0,4.0,96,0.13,,CLR,0.35,7.00,VWS V14.01,2013-12-29 13:35:00,
2013-12-29 08:40:00,44.5,43.4,29.84,SSE,163,3.0,3.0,96,0.15,,CLR,0.37,7.00,VWS V14.01,2013-12-29 13:40:00,
2013-12-29 08:45:00,44.7,43.6,29.84,SE,135,4.0,4.0,96,0.16,,CLR,0.39,5.00,VWS V14.01,2013-12-29 13:45:00,
2013-12-29 08:50:00,44.9,43.8,29.83,SE,128,0.0,3.0,96,0.17,,CLR,0.41,9.00,VWS V14.01,2013-12-29 13:50:00,
2013-12-29 08:55:00,45.0,43.9,29.83,SSE,156,0.0,2.0,96,0.17,,CLR,0.42,5.00,VWS V14.01,2013-12-29 13:55:00,
2013-12-29 09:00:00,45.1,44.0,29.83,NE,49,1.0,1.0,96,0.18,,CLR,0.44,7.00,VWS V14.01,2013-12-29 14:00:00,
2013-12-29 09:05:00,45.2,44.1,29.83,ENE,61,0.0,1.0,96,0.18,,CLR,0.45,7.00,VWS V14.01,2013-12-29 14:05:00,
2013-12-29 09:10:00,45.3,44.2,29.82,SE,143,2.0,4.0,96,0.19,,CLR,0.47,11.00,VWS V14.01,2013-12-29 14:10:00,
2013-12-29 09:15:00,45.5,44.4,29.82,SE,139,0.0,0.0,96,0.19,,CLR,0.48,7.00,VWS V14.01,2013-12-29 14:15:00,
2013-12-29 09:21:00,45.5,44.4,29.82,SE,138,0.0,0.0,96,0.19,,CLR,0.49,5.00,VWS V14.01,2013-12-29 14:21:00,
2013-12-29 09:26:00,45.5,44.4,29.82,SE,138,0.0,0.0,96,0.21,,CLR,0.52,7.00,VWS V14.01,2013-12-29 14:26:00,
2013-12-29 09:31:00,45.3,44.2,29.82,NNW,346,0.0,2.0,96,0.21,,CLR,0.54,9.00,VWS V14.01,2013-12-29 14:31:00,
2013-12-29 09:36:00,45.1,44.0,29.81,NNW,346,0.0,1.0,96,0.22,,CLR,0.57,9.00,VWS V14.01,2013-12-29 14:36:00,
2013-12-29 09:41:00,45.0,43.9,29.81,NNW,348,0.0,0.0,96,0.22,,CLR,0.59,9.00,VWS V14.01,2013-12-29 14:41:00,
2013-12-29 09:46:00,44.9,43.8,29.82,NNW,348,0.0,0.0,96,0.22,,CLR,0.61,7.00,VWS V14.01,2013-12-29 14:46:00,
2013-12-29 09:51:00,44.7,43.6,29.82,NNW,348,0.0,2.0,96,0.23,,CLR,0.64,9.00,VWS V14.01,2013-12-29 14:51:00,
2013-12-29 09:56:00,44.5,43.4,29.81,NNW,329,0.0,2.0,96,0.26,,CLR,0.68,9.00,VWS V14.01,2013-12-29 14:56:00,
2013-12-29 10:01:00,44.1,43.0,29.82,NNW,329,2.0,3.0,96,0.27,,CLR,0.70,11.00,VWS V14.01,2013-12-29 15:01:00,
2013-12-29 10:06:00,43.7,42.6,29.81,NNW,344,0.0,5.0,96,0.27,,CLR,0.72,12.00,VWS V14.01,2013-12-29 15:06:00,
2013-12-29 10:11:00,43.3,42.2,29.80,North,360,0.0,4.0,96,0.29,,CLR,0.75,19.00,VWS V14.01,2013-12-29 15:11:00,
2013-12-29 10:16:00,43.1,42.0,29.80,North,360,0.0,2.0,96,0.29,,CLR,0.77,11.00,VWS V14.01,2013-12-29 15:16:00,
2013-12-29 10:22:00,42.9,41.8,29.79,NNW,334,3.0,7.0,96,0.30,,CLR,0.79,11.00,VWS V14.01,2013-12-29 15:22:00,
2013-12-29 10:27:00,42.6,41.5,29.80,NNW,334,3.0,7.0,96,0.30,,CLR,0.81,11.00,VWS V14.01,2013-12-29 15:27:00,
2013-12-29 10:32:00,42.4,41.3,29.79,NNW,340,4.0,6.0,96,0.30,,CLR,0.83,16.00,VWS V14.01,2013-12-29 15:32:00,
2013-12-29 10:37:00,42.1,41.0,29.77,North,11,4.0,5.0,96,0.30,,CLR,0.86,25.00,VWS V14.01,2013-12-29 15:37:00,
2013-12-29 10:42:00,41.9,40.8,29.78,NW,322,5.0,7.0,96,0.31,,CLR,0.89,11.00,VWS V14.01,2013-12-29 15:42:00,
2013-12-29 10:47:00,41.8,40.8,29.79,NNW,348,4.0,5.0,96,0.31,,CLR,0.91,11.00,VWS V14.01,2013-12-29 15:47:00,
2013-12-29 10:52:00,41.7,40.7,29.75,NE,44,0.0,5.0,96,0.31,,CLR,0.94,21.00,VWS V14.01,2013-12-29 15:52:00,
2013-12-29 10:57:00,41.6,40.5,29.76,NW,325,5.0,5.0,96,0.31,,CLR,0.97,16.00,VWS V14.01,2013-12-29 15:57:00,
2013-12-29 11:02:00,41.5,40.5,29.77,NW,322,4.0,7.0,96,0.30,,CLR,0.99,16.00,VWS V14.01,2013-12-29 16:02:00,
2013-12-29 11:07:00,41.4,40.3,29.75,NNE,13,0.0,5.0,96,0.30,,CLR,1.01,19.00,VWS V14.01,2013-12-29 16:07:00,
2013-12-29 11:12:00,41.3,40.2,29.74,NNE,15,4.0,5.0,96,0.29,,CLR,1.02,14.00,VWS V14.01,2013-12-29 16:12:00,
2013-12-29 11:18:00,41.2,40.4,29.74,North,5,0.0,4.0,97,0.27,,CLR,1.03,18.00,VWS V14.01,2013-12-29 16:18:00,
2013-12-29 11:23:00,41.1,40.3,29.72,NE,54,1.0,3.0,97,0.27,,CLR,1.04,25.00,VWS V14.01,2013-12-29 16:23:00,
2013-12-29 11:28:00,41.1,40.3,29.71,NNE,24,2.0,4.0,97,0.26,,CLR,1.05,28.00,VWS V14.01,2013-12-29 16:28:00,
2013-12-29 11:33:00,41.1,40.3,29.71,North,10,0.0,3.0,97,0.23,,CLR,1.05,26.00,VWS V14.01,2013-12-29 16:33:00,
2013-12-29 11:38:00,41.1,40.3,29.71,North,11,0.0,3.0,97,0.20,,CLR,1.05,18.00,VWS V14.01,2013-12-29 16:38:00,
2013-12-29 11:43:00,41.1,40.3,29.70,North,10,3.0,3.0,97,0.18,,CLR,1.05,28.00,VWS V14.01,2013-12-29 16:43:00,
2013-12-29 11:48:00,41.1,40.3,29.69,NNE,14,1.0,4.0,97,0.15,,CLR,1.05,42.00,VWS V14.01,2013-12-29 16:48:00,
2013-12-29 11:53:00,41.1,40.3,29.69,NNE,26,2.0,4.0,97,0.13,,CLR,1.05,33.00,VWS V14.01,2013-12-29 16:53:00,
2013-12-29 11:59:00,41.1,40.3,29.67,NE,34,0.0,4.0,97,0.11,,CLR,1.06,40.00,VWS V14.01,2013-12-29 16:59:00,
2013-12-29 12:04:00,41.2,40.4,29.65,NE,45,0.0,1.0,97,0.08,,CLR,1.06,56.00,VWS V14.01,2013-12-29 17:04:00,
2013-12-29 12:09:00,41.3,40.5,29.66,NE,55,0.0,2.0,97,0.08,,CLR,1.07,46.00,VWS V14.01,2013-12-29 17:09:00,
2013-12-29 12:14:00,41.5,40.7,29.65,NE,55,0.0,1.0,97,0.06,,CLR,1.07,53.00,VWS V14.01,2013-12-29 17:14:00,
2013-12-29 12:19:00,41.6,40.8,29.64,NE,55,0.0,3.0,97,0.05,,CLR,1.07,40.00,VWS V14.01,2013-12-29 17:19:00,
2013-12-29 12:24:00,41.7,40.9,29.64,NE,55,0.0,1.0,97,0.05,,CLR,1.08,74.00,VWS V14.01,2013-12-29 17:24:00,
2013-12-29 12:29:00,41.9,41.1,29.61,NE,56,0.0,3.0,97,0.04,,CLR,1.08,97.00,VWS V14.01,2013-12-29 17:29:00,
2013-12-29 12:34:00,42.2,41.4,29.60,ENE,65,1.0,3.0,97,0.03,,CLR,1.08,77.00,VWS V14.01,2013-12-29 17:34:00,
2013-12-29 12:39:00,42.3,41.8,29.58,SE,132,0.0,7.0,98,0.03,,CLR,1.08,81.00,VWS V14.01,2013-12-29 17:39:00,
2013-12-29 12:44:00,42.6,41.8,29.57,ENE,73,3.0,7.0,97,0.03,,CLR,1.08,79.00,VWS V14.01,2013-12-29 17:44:00,
2013-12-29 12:49:00,42.9,42.4,29.56,ENE,77,0.0,4.0,98,0.03,,CLR,1.08,65.00,VWS V14.01,2013-12-29 17:49:00,
2013-12-29 12:54:00,43.1,42.6,29.55,ENE,60,0.0,4.0,98,0.03,,CLR,1.08,77.00,VWS V14.01,2013-12-29 17:54:00,
2013-12-29 12:59:00,43.3,42.8,29.56,ENE,61,0.0,0.0,98,0.03,,CLR,1.08,70.00,VWS V14.01,2013-12-29 17:59:00,
2013-12-29 13:04:00,43.4,42.9,29.55,NNE,14,3.0,3.0,98,0.02,,CLR,1.08,74.00,VWS V14.01,2013-12-29 18:04:00,
2013-12-29 13:09:00,43.6,43.1,29.55,North,360,0.0,3.0,98,0.02,,CLR,1.08,79.00,VWS V14.01,2013-12-29 18:09:00,
2013-12-29 13:14:00,43.8,43.3,29.55,NNW,340,0.0,4.0,98,0.02,,CLR,1.09,67.00,VWS V14.01,2013-12-29 18:14:00,
2013-12-29 13:19:00,43.9,43.4,29.56,NNW,330,0.0,4.0,98,0.02,,CLR,1.09,60.00,VWS V14.01,2013-12-29 18:19:00,
2013-12-29 13:24:00,44.0,43.5,29.56,NNW,330,3.0,3.0,98,0.02,,CLR,1.09,69.00,VWS V14.01,2013-12-29 18:24:00,
2013-12-29 13:29:00,44.0,43.5,29.55,NW,321,4.0,4.0,98,0.01,,CLR,1.09,63.00,VWS V14.01,2013-12-29 18:29:00,
2013-12-29 13:34:00,44.0,43.5,29.56,NW,317,1.0,2.0,98,0.02,,CLR,1.10,56.00,VWS V14.01,2013-12-29 18:34:00,
2013-12-29 13:39:00,44.0,43.5,29.56,NNW,329,3.0,4.0,98,0.02,,CLR,1.10,51.00,VWS V14.01,2013-12-29 18:39:00,
2013-12-29 13:44:00,44.0,43.5,29.55,NNW,334,3.0,4.0,98,0.02,,CLR,1.10,49.00,VWS V14.01,2013-12-29 18:44:00,
2013-12-29 13:49:00,43.8,43.3,29.53,NNW,341,4.0,4.0,98,0.02,,CLR,1.10,54.00,VWS V14.01,2013-12-29 18:49:00,
2013-12-29 13:55:00,43.8,43.3,29.55,NNW,336,0.0,1.0,98,0.02,,CLR,1.10,46.00,VWS V14.01,2013-12-29 18:55:00,
2013-12-29 14:00:00,43.8,43.3,29.55,NNW,335,2.0,3.0,98,0.02,,CLR,1.10,44.00,VWS V14.01,2013-12-29 19:00:00,
2013-12-29 14:05:00,43.8,43.3,29.57,WNW,299,0.0,3.0,98,0.02,,CLR,1.10,37.00,VWS V14.01,2013-12-29 19:05:00,
2013-12-29 14:10:00,43.8,43.3,29.57,WNW,299,0.0,4.0,98,0.02,,CLR,1.10,23.00,VWS V14.01,2013-12-29 19:10:00,
2013-12-29 14:15:00,43.8,43.3,29.56,NW,312,2.0,4.0,98,0.01,,CLR,1.10,26.00,VWS V14.01,2013-12-29 19:15:00,
2013-12-29 14:20:00,43.6,43.1,29.57,NW,311,0.0,4.0,98,0.01,,CLR,1.10,25.00,VWS V14.01,2013-12-29 19:20:00,
2013-12-29 14:25:00,43.4,42.9,29.57,NW,308,0.0,6.0,98,0.01,,CLR,1.10,25.00,VWS V14.01,2013-12-29 19:25:00,
2013-12-29 14:30:00,43.2,42.7,29.56,NW,326,0.0,6.0,98,0.01,,CLR,1.10,26.00,VWS V14.01,2013-12-29 19:30:00,
2013-12-29 14:35:00,43.1,42.6,29.57,NW,325,0.0,1.0,98,0.00,,CLR,1.10,23.00,VWS V14.01,2013-12-29 19:35:00,
2013-12-29 14:40:00,43.0,42.5,29.57,NW,325,1.0,1.0,98,0.00,,CLR,1.10,26.00,VWS V14.01,2013-12-29 19:40:00,
2013-12-29 14:46:00,42.9,42.4,29.57,NW,311,0.0,5.0,98,0.00,,CLR,1.10,32.00,VWS V14.01,2013-12-29 19:46:00,
2013-12-29 14:51:00,42.9,42.4,29.56,NNW,333,1.0,5.0,98,0.00,,CLR,1.10,37.00,VWS V14.01,2013-12-29 19:51:00,
2013-12-29 14:56:00,42.8,42.3,29.57,NNW,331,3.0,4.0,98,0.00,,CLR,1.10,28.00,VWS V14.01,2013-12-29 19:56:00,
2013-12-29 15:01:00,42.9,42.4,29.57,NNW,344,3.0,6.0,98,0.00,,CLR,1.10,26.00,VWS V14.01,2013-12-29 20:01:00,
2013-12-29 15:06:00,42.9,42.4,29.56,NNW,338,0.0,5.0,98,0.00,,CLR,1.10,30.00,VWS V14.01,2013-12-29 20:06:00,
2013-12-29 15:11:00,42.9,42.4,29.56,NNW,331,3.0,3.0,98,0.01,,CLR,1.11,28.00,VWS V14.01,2013-12-29 20:11:00,
2013-12-29 15:16:00,42.9,42.4,29.55,NNW,344,4.0,6.0,98,0.01,,CLR,1.11,91.00,VWS V14.01,2013-12-29 20:16:00,
2013-12-29 15:21:00,43.1,42.6,29.56,NNW,344,5.0,6.0,98,0.01,,CLR,1.11,65.00,VWS V14.01,2013-12-29 20:21:00,
2013-12-29 15:26:00,43.2,42.7,29.55,NNW,345,0.0,5.0,98,0.01,,CLR,1.11,69.00,VWS V14.01,2013-12-29 20:26:00,
2013-12-29 15:31:00,43.4,42.9,29.55,NNW,345,0.0,4.0,98,0.01,,CLR,1.11,100.00,VWS V14.01,2013-12-29 20:31:00,
2013-12-29 15:37:00,43.5,43.0,29.55,NNW,344,0.0,2.0,98,0.01,,CLR,1.11,69.00,VWS V14.01,2013-12-29 20:37:00,
2013-12-29 15:42:00,43.6,43.1,29.55,NNW,346,2.0,5.0,98,0.01,,CLR,1.11,35.00,VWS V14.01,2013-12-29 20:42:00,
2013-12-29 15:47:00,43.7,43.2,29.55,NNW,346,0.0,4.0,98,0.01,,CLR,1.11,65.00,VWS V14.01,2013-12-29 20:47:00,
2013-12-29 15:52:00,43.8,43.3,29.56,NNW,333,4.0,5.0,98,0.01,,CLR,1.11,113.00,VWS V14.01,2013-12-29 20:52:00,
2013-12-29 15:57:00,43.9,43.4,29.56,North,355,2.0,4.0,98,0.01,,CLR,1.11,44.00,VWS V14.01,2013-12-29 20:57:00,
2013-12-29 16:02:00,43.9,43.4,29.56,NNW,330,3.0,5.0,98,0.01,,CLR,1.11,14.00,VWS V14.01,2013-12-29 21:02:00,
2013-12-29 16:07:00,43.8,43.3,29.56,NNW,331,0.0,4.0,98,0.01,,CLR,1.11,11.00,VWS V14.01,2013-12-29 21:07:00,
2013-12-29 16:12:00,43.8,43.3,29.57,NNW,343,1.0,10.0,98,0.02,,CLR,1.12,23.00,VWS V14.01,2013-12-29 21:12:00,
2013-12-29 16:17:00,43.7,43.2,29.57,NW,326,0.0,3.0,98,0.01,,CLR,1.12,21.00,VWS V14.01,2013-12-29 21:17:00,
2013-12-29 16:22:00,43.7,43.2,29.57,NNW,337,2.0,5.0,98,0.01,,CLR,1.12,18.00,VWS V14.01,2013-12-29 21:22:00,
2013-12-29 16:28:00,43.7,43.2,29.58,NW,313,1.0,6.0,98,0.01,,CLR,1.12,11.00,VWS V14.01,2013-12-29 21:28:00,
2013-12-29 16:33:00,43.7,43.2,29.59,NW,313,0.0,3.0,98,0.01,,CLR,1.12,9.00,VWS V14.01,2013-12-29 21:33:00,
2013-12-29 16:38:00,43.7,43.2,29.59,NW,321,0.0,3.0,98,0.01,,CLR,1.12,9.00,VWS V14.01,2013-12-29 21:38:00,
2013-12-29 16:43:00,43.7,43.2,29.59,NW,321,0.0,0.0,98,0.01,,CLR,1.12,5.00,VWS V14.01,2013-12-29 21:43:00,
2013-12-29 16:48:00,43.7,43.2,29.60,NW,321,0.0,3.0,98,0.01,,CLR,1.12,0.00,VWS V14.01,2013-12-29 21:48:00,
2013-12-29 16:53:00,43.7,43.2,29.60,NW,321,0.0,1.0,98,0.01,,CLR,1.12,0.00,VWS V14.01,2013-12-29 21:53:00,
2013-12-29 16:58:00,43.6,43.1,29.60,NW,321,0.0,0.0,98,0.01,,CLR,1.12,0.00,VWS V14.01,2013-12-29 21:58:00,
2013-12-29 17:03:00,43.6,43.1,29.61,NW,321,0.0,0.0,98,0.01,,CLR,1.12,0.00,VWS V14.01,2013-12-29 22:03:00,
2013-12-29 17:08:00,43.6,43.1,29.61,NW,321,0.0,0.0,98,0.01,,CLR,1.12,0.00,VWS V14.01,2013-12-29 22:08:00,
2013-12-29 17:13:00,43.6,43.1,29.61,NW,321,0.0,0.0,98,0.01,,CLR,1.12,0.00,VWS V14.01,2013-12-29 22:13:00,
2013-12-29 17:18:00,43.6,43.1,29.61,NW,321,0.0,0.0,98,0.00,,CLR,1.12,0.00,VWS V14.01,2013-12-29 22:18:00,
2013-12-29 17:23:00,43.6,43.1,29.62,NW,321,0.0,0.0,98,0.00,,CLR,1.12,0.00,VWS V14.01,2013-12-29 22:23:00,
2013-12-29 17:29:00,43.6,43.1,29.62,NW,321,0.0,0.0,98,0.00,,CLR,1.12,0.00,VWS V14.01,2013-12-29 22:29:00,
2013-12-29 17:34:00,43.6,43.1,29.62,NW,321,0.0,0.0,98,0.00,,CLR,1.12,0.00,VWS V14.01,2013-12-29 22:34:00,
2013-12-29 17:39:00,43.6,43.1,29.63,NW,321,0.0,1.0,98,0.00,,CLR,1.12,0.00,VWS V14.01,2013-12-29 22:39:00,
2013-12-29 17:44:00,43.6,43.1,29.63,NW,321,0.0,0.0,98,0.00,,CLR,1.12,0.00,VWS V14.01,2013-12-29 22:44:00,
2013-12-29 17:49:00,43.6,43.1,29.63,NW,321,0.0,1.0,98,0.00,,CLR,1.12,0.00,VWS V14.01,2013-12-29 22:49:00,
2013-12-29 17:54:00,43.6,43.1,29.64,NW,321,0.0,1.0,98,0.00,,CLR,1.12,0.00,VWS V14.01,2013-12-29 22:54:00,
2013-12-29 17:59:00,43.6,43.1,29.64,NW,321,3.0,4.0,98,0.00,,CLR,1.12,0.00,VWS V14.01,2013-12-29 22:59:00,
2013-12-29 18:04:00,43.7,43.2,29.65,NNW,340,6.0,7.0,98,0.00,,CLR,1.12,0.00,VWS V14.01,2013-12-29 23:04:00,
2013-12-29 18:09:00,43.8,43.3,29.65,NW,314,3.0,8.0,98,0.00,,CLR,1.12,0.00,VWS V14.01,2013-12-29 23:09:00,
2013-12-29 18:14:00,43.9,43.4,29.65,NW,326,5.0,9.0,98,0.00,,CLR,1.12,0.00,VWS V14.01,2013-12-29 23:14:00,
2013-12-29 18:19:00,44.2,43.7,29.66,NW,320,3.0,14.0,98,0.00,,CLR,1.12,0.00,VWS V14.01,2013-12-29 23:19:00,
2013-12-29 18:24:00,44.3,44.0,29.66,NNW,327,5.0,15.0,99,0.00,,CLR,1.12,0.00,VWS V14.01,2013-12-29 23:24:00,
2013-12-29 18:29:00,44.5,44.0,29.67,NNW,332,3.0,4.0,98,0.00,,CLR,1.12,0.00,VWS V14.01,2013-12-29 23:29:00,
2013-12-29 18:34:00,44.6,44.1,29.68,WNW,303,8.0,8.0,98,0.00,,CLR,1.12,0.00,VWS V14.01,2013-12-29 23:34:00,
2013-12-29 18:39:00,44.7,44.2,29.68,NW,325,5.0,5.0,98,0.00,,CLR,1.12,0.00,VWS V14.01,2013-12-29 23:39:00,
2013-12-29 18:44:00,44.8,44.3,29.69,NNW,338,2.0,2.0,98,0.00,,CLR,1.12,0.00,VWS V14.01,2013-12-29 23:44:00,
2013-12-29 18:49:00,44.7,44.2,29.69,NNW,329,2.0,5.0,98,0.00,,CLR,1.12,0.00,VWS V14.01,2013-12-29 23:49:00,
2013-12-29 18:54:00,44.6,44.1,29.69,NNW,336,7.0,9.0,98,0.00,,CLR,1.12,0.00,VWS V14.01,2013-12-29 23:54:00,
2013-12-29 18:59:00,44.6,43.8,29.69,NW,322,6.0,6.0,97,0.00,,CLR,1.12,0.00,VWS V14.01,2013-12-29 23:59:00,
2013-12-29 19:05:00,44.5,43.7,29.69,NNW,327,6.0,11.0,97,0.00,,CLR,1.12,0.00,VWS V14.01,2013-12-30 00:05:00,
2013-12-29 19:10:00,44.6,43.5,29.70,NW,311,8.0,10.0,96,0.00,,CLR,1.12,0.00,VWS V14.01,2013-12-30 00:10:00,
2013-12-29 19:15:00,44.7,43.6,29.70,NNW,330,4.0,6.0,96,0.00,,CLR,1.12,0.00,VWS V14.01,2013-12-30 00:15:00,
2013-12-29 19:20:00,44.7,43.4,29.70,NW,324,2.0,4.0,95,0.00,,CLR,1.12,0.00,VWS V14.01,2013-12-30 00:20:00,
2013-12-29 19:25:00,44.7,43.1,29.70,NNW,338,4.0,6.0,94,0.00,,CLR,1.12,0.00,VWS V14.01,2013-12-30 00:25:00,
2013-12-29 19:30:00,44.6,42.7,29.71,NNW,333,2.0,7.0,93,0.00,,CLR,1.12,0.00,VWS V14.01,2013-12-30 00:30:00,
2013-12-29 19:35:00,44.6,42.4,29.72,NNW,328,4.0,7.0,92,0.00,,CLR,1.12,0.00,VWS V14.01,2013-12-30 00:35:00,
2013-12-29 19:40:00,44.6,42.4,29.73,WNW,292,4.0,10.0,92,0.00,,CLR,1.12,0.00,VWS V14.01,2013-12-30 00:40:00,
2013-12-29 19:45:00,44.7,42.2,29.73,NW,318,6.0,8.0,91,0.00,,CLR,1.12,0.00,VWS V14.01,2013-12-30 00:45:00,
2013-12-29 19:51:00,44.8,42.0,29.75,NW,307,3.0,5.0,90,0.00,,CLR,1.12,0.00,VWS V14.01,2013-12-30 00:51:00,
2013-12-29 19:56:00,44.8,42.0,29.75,NNW,329,1.0,1.0,90,0.00,,CLR,1.12,0.00,VWS V14.01,2013-12-30 00:56:00,
2013-12-29 20:01:00,44.8,41.8,29.75,NW,317,4.0,4.0,89,0.00,,CLR,1.12,0.00,VWS V14.01,2013-12-30 01:01:00,
2013-12-29 20:06:00,44.8,41.5,29.75,NNW,329,3.0,10.0,88,0.00,,CLR,1.12,0.00,VWS V14.01,2013-12-30 01:06:00,
2013-12-29 20:11:00,45.0,41.4,29.75,NNW,344,4.0,7.0,87,0.00,,CLR,1.12,0.00,VWS V14.01,2013-12-30 01:11:00,
2013-12-29 20:16:00,45.1,41.2,29.75,NW,313,4.0,5.0,86,0.00,,CLR,1.12,0.00,VWS V14.01,2013-12-30 01:16:00,
2013-12-29 20:21:00,45.1,40.9,29.75,NW,321,0.0,2.0,85,0.00,,CLR,1.12,0.00,VWS V14.01,2013-12-30 01:21:00,
2013-12-29 20:26:00,45.1,40.6,29.74,North,9,0.0,5.0,84,0.00,,CLR,1.12,0.00,VWS V14.01,2013-12-30 01:26:00,
2013-12-29 20:32:00,45.1,40.6,29.74,NNE,13,0.0,0.0,84,0.00,,CLR,1.12,0.00,VWS V14.01,2013-12-30 01:32:00,
2013-12-29 20:37:00,45.0,40.5,29.74,NNE,13,0.0,0.0,84,0.00,,CLR,1.12,0.00,VWS V14.01,2013-12-30 01:37:00,
2013-12-29 20:39:00,45.0,40.5,29.74,NNE,13,0.0,0.0,84,0.00,,CLR,1.12,0.00,VWS V14.01,2013-12-30 01:39:00,
2013-12-29 20:44:00,44.7,40.2,29.75,NE,50,0.0,0.0,84,0.00,,CLR,1.12,0.00,VWS V14.01,2013-12-30 01:44:00,
2013-12-29 20:49:00,44.4,39.9,29.76,NE,50,0.0,0.0,84,0.00,,CLR,1.12,0.00,VWS V14.01,2013-12-30 01:49:00,
2013-12-29 20:54:00,44.2,40.0,29.76,NE,50,0.0,0.0,85,0.00,,CLR,1.12,0.00,VWS V14.01,2013-12-30 01:54:00,
2013-12-29 21:00:00,43.9,39.7,29.76,NNE,15,0.0,0.0,85,0.00,,CLR,1.12,0.00,VWS V14.01,2013-12-30 02:00:00,
2013-12-29 21:05:00,43.7,39.8,29.77,SSW,212,0.0,0.0,86,0.00,,CLR,1.12,0.00,VWS V14.01,2013-12-30 02:05:00,
2013-12-29 21:10:00,43.8,39.9,29.76,NW,312,1.0,3.0,86,0.00,,CLR,1.12,0.00,VWS V14.01,2013-12-30 02:10:00,
2013-12-29 21:15:00,43.9,40.0,29.76,NW,312,0.0,2.0,86,0.00,,CLR,1.12,0.00,VWS V14.01,2013-12-30 02:15:00,
2013-12-29 21:20:00,44.0,40.4,29.76,NW,312,0.0,0.0,87,0.00,,CLR,1.12,0.00,VWS V14.01,2013-12-30 02:20:00,
2013-12-29 21:25:00,44.1,40.2,29.76,NW,311,0.0,0.0,86,0.00,,CLR,1.12,0.00,VWS V14.01,2013-12-30 02:25:00,
2013-12-29 21:30:00,44.2,40.3,29.76,NW,311,0.0,0.0,86,0.00,,CLR,1.12,0.00,VWS V14.01,2013-12-30 02:30:00,
2013-12-29 21:35:00,44.2,40.3,29.76,NW,311,0.0,0.0,86,0.00,,CLR,1.12,0.00,VWS V14.01,2013-12-30 02:35:00,
2013-12-29 21:40:00,44.2,40.0,29.77,NW,312,0.0,0.0,85,0.00,,CLR,1.12,0.00,VWS V14.01,2013-12-30 02:40:00,
2013-12-29 21:45:00,44.1,39.9,29.77,NW,312,0.0,0.0,85,0.00,,CLR,1.12,0.00,VWS V14.01,2013-12-30 02:45:00,
2013-12-29 21:50:00,44.0,39.8,29.77,NW,311,0.0,0.0,85,0.00,,CLR,1.12,0.00,VWS V14.01,2013-12-30 02:50:00,
2013-12-29 21:55:00,43.9,39.7,29.78,NW,312,0.0,0.0,85,0.00,,CLR,1.12,0.00,VWS V14.01,2013-12-30 02:55:00,
2013-12-29 22:01:00,43.8,39.6,29.78,NW,312,0.0,0.0,85,0.00,,CLR,1.12,0.00,VWS V14.01,2013-12-30 03:01:00,
2013-12-29 22:06:00,43.6,39.7,29.77,NW,312,0.0,0.0,86,0.00,,CLR,1.12,0.00,VWS V14.01,2013-12-30 03:06:00,
2013-12-29 22:11:00,43.5,39.6,29.77,NW,311,0.0,0.0,86,0.00,,CLR,1.12,0.00,VWS V14.01,2013-12-30 03:11:00,
2013-12-29 22:16:00,43.3,39.4,29.76,NW,311,0.0,0.0,86,0.00,,CLR,1.12,0.00,VWS V14.01,2013-12-30 03:16:00,
2013-12-29 22:21:00,43.1,39.2,29.76,NW,312,0.0,1.0,86,0.00,,CLR,1.12,0.00,VWS V14.01,2013-12-30 03:21:00,
2013-12-29 22:26:00,43.0,39.1,29.77,NW,312,0.0,2.0,86,0.00,,CLR,1.12,0.00,VWS V14.01,2013-12-30 03:26:00,
2013-12-29 22:31:00,42.9,39.3,29.77,NW,311,0.0,0.0,87,0.00,,CLR,1.12,0.00,VWS V14.01,2013-12-30 03:31:00,
2013-12-29 22:36:00,42.8,39.2,29.77,NW,312,0.0,0.0,87,0.00,,CLR,1.12,0.00,VWS V14.01,2013-12-30 03:36:00,
2013-12-29 22:41:00,42.7,39.1,29.77,NW,312,0.0,0.0,87,0.00,,CLR,1.12,0.00,VWS V14.01,2013-12-30 03:41:00,
2013-12-29 22:46:00,42.7,39.1,29.77,NW,312,0.0,0.0,87,0.00,,CLR,1.12,0.00,VWS V14.01,2013-12-30 03:46:00,
2013-12-29 22:51:00,42.6,39.0,29.77,NW,312,0.0,0.0,87,0.00,,CLR,1.12,0.00,VWS V14.01,2013-12-30 03:51:00,
2013-12-29 22:56:00,42.5,38.9,29.77,NW,311,0.0,0.0,87,0.00,,CLR,1.12,0.00,VWS V14.01,2013-12-30 03:56:00,
2013-12-29 23:02:00,42.5,39.2,29.77,NW,311,0.0,1.0,88,0.00,,CLR,1.12,0.00,VWS V14.01,2013-12-30 04:02:00,
2013-12-29 23:07:00,42.5,39.2,29.77,NW,311,0.0,0.0,88,0.00,,CLR,1.12,0.00,VWS V14.01,2013-12-30 04:07:00,
2013-12-29 23:12:00,42.4,39.1,29.77,NW,312,0.0,0.0,88,0.00,,CLR,1.12,0.00,VWS V14.01,2013-12-30 04:12:00,
2013-12-29 23:17:00,42.4,39.1,29.77,NW,312,0.0,1.0,88,0.00,,CLR,1.12,0.00,VWS V14.01,2013-12-30 04:17:00,
2013-12-29 23:22:00,42.4,39.4,29.77,WSW,252,0.0,2.0,89,0.00,,CLR,1.12,0.00,VWS V14.01,2013-12-30 04:22:00,
2013-12-29 23:27:00,42.5,39.5,29.78,WSW,248,3.0,4.0,89,0.00,,CLR,1.12,0.00,VWS V14.01,2013-12-30 04:27:00,
2013-12-29 23:32:00,42.7,39.7,29.79,SW,226,0.0,5.0,89,0.00,,CLR,1.12,0.00,VWS V14.01,2013-12-30 04:32:00,
2013-12-29 23:37:00,42.9,40.2,29.78,SSW,210,0.0,5.0,90,0.00,,CLR,1.12,0.00,VWS V14.01,2013-12-30 04:37:00,
2013-12-29 23:42:00,43.1,40.1,29.79,SW,225,3.0,4.0,89,0.00,,CLR,1.12,0.00,VWS V14.01,2013-12-30 04:42:00,
2013-12-29 23:47:00,43.3,40.3,29.79,SW,225,0.0,3.0,89,0.00,,CLR,1.12,0.00,VWS V14.01,2013-12-30 04:47:00,
2013-12-29 23:52:00,43.4,40.4,29.80,SW,230,2.0,5.0,89,0.00,,CLR,1.12,0.00,VWS V14.01,2013-12-30 04:52:00,
2013-12-29 23:58:00,43.6,40.6,29.80,SW,218,1.0,5.0,89,0.00,,CLR,1.12,0.00,VWS V14.01,2013-12-30 04:58:00,